Regional Weather Roundup
Issued by NWS

Home | Current Version | Previous Version | Text Only | Print | Product List | Glossary Off
Versions: 1 2 3 4 5 6 7 8 9 10 11 12 13 14 15 16 17 18 19 20 21 22 23 24 25 26 27 28 29 30 31 32 33 34 35 36 37 38 39 40 41 42 43 44 45 46 47 48 49 50

556
ASUS43 KDMX 051408
RWRIA

WEATHER ROUNDUP FOR IOWA
NATIONAL WEATHER SERVICE DES MOINES IA
800 AM CST FRI FEB 05 2016

NOTE: "FAIR" INDICATES FEW OR NO CLOUDS BELOW 12,000 FEET WITH NO
SIGNIFICANT WEATHER AND/OR OBSTRUCTIONS TO VISIBILITY.

* - THESE STATIONS ARE NOT NWS STATIONS...THUS NOT UNDER NWS
QUALITY CONTROL.  THEY ALSO DO NOT REPORT WEATHER SUCH
AS PRECIPITATION OR FOG.

IAZ001>003-012>014-020>022-031>034-043>046-051500-
   NORTHWEST IOWA

CITY           SKY/WX    TMP DP  RH WIND       PRES   REMARKS
CARROLL *      CLEAR      9   7  92 CALM      30.35R
CHEROKEE *     PTCLDY     3   1  92 CALM      30.31S
DENISON *      CLEAR     10   9  92 CALM      30.33R
LE MARS *      PTCLDY    16  16 100 S9        30.30S WCI   4
ORANGE CITY *  PTCLDY    14  12  92 S5        30.26F WCI   6
SHELDON *      CLEAR     12  10  92 S10       30.26S WCI  -1
SIOUX CITY     CLOUDY    13   9  84 E12       30.30F WCI  -1
SPENCER        CLOUDY     5   1  83 SE6       30.30R WCI  -6
STORM LAKE *   CLEAR     12  12 100 S12       30.30S WCI  -2
$$

IAZ055>058-069>071-079>083-090>094-051500-
   SOUTHWEST IOWA

CITY           SKY/WX    TMP DP  RH WIND       PRES   REMARKS
ATLANTIC *     PTCLDY    12  10  92 SW3       30.38R
AUDUBON *      CLEAR      7   1  78 CALM      30.36R FOG
CLARINDA *     PTCLDY    23  21  93 CALM      30.41S
COUNCIL BLFS * CLOUDY    21  19  93 S7        30.36R FOG     WCI  13
CRESTON *      MOCLDY    19  16  86 S6        30.38R WCI  11
HARLAN  *      PTCLDY    10   9  92 CALM      30.40R FOG
LAMONI         CLOUDY    20  15  81 SE3       30.39R
RED OAK *      PTCLDY    21  21 100 CALM      30.39R FOG
SHENANDOAH *   MOCLDY    23  23 100 CALM      30.40R
$$

IAZ047>049-059>061-072>074-084-051500-
   CENTRAL IOWA

CITY           SKY/WX    TMP DP  RH WIND       PRES   REMARKS
AMES           CLOUDY     9   6  88 CALM      30.39R FOG
ANKENY *       CLEAR     12  12 100 CALM      30.40S
BOONE *        CLEAR      9   5  85 CALM      30.37R FOG
CHARITON *     CLEAR     19  16  86 CALM      30.39R
DES MOINES     CLOUDY    16  13  88 CALM      30.40R FOG
GRINNELL*      CLOUDY    14  10  85 CALM      30.39R
KNOXVILLE *    CLEAR     18  14  86 CALM      30.39R
MARSHALLTOWN   CLOUDY     8   6  92 CALM      30.38R
NEWTON *       CLEAR     14  14 100 CALM      30.39R
PELLA *        CLOUDY    16  14  93 CALM      30.41S
$$

IAZ004>006-015-016-023>025-035-036-051500-
   NORTH CENTRAL IOWA

CITY           SKY/WX    TMP DP  RH WIND       PRES   REMARKS
ALGONA *       CLEAR      7   5  92 SE7       30.32S WCI  -5
CLARION *      HAZE       5   1  85 S6        30.37R VSB 0   WCI  -6
ESTHERVILLE    CLOUDY     5   3  91 S9        30.30R WCI  -9
FORT DODGE *   PTCLDY     1  -4  78 CALM      30.36S
MASON CITY     CLOUDY     4   2  91 S3        30.36S
FOREST CITY *  CLOUDY     3   1  92 CALM      30.35R FOG
WEBSTER CITY * FOG        1  -2  85 S5        30.36S VSB 1/4 WCI  -8
IOWA FALLS *   CLOUDY     7   3  85 CALM      30.38R FOG
$$

IAZ007>011-017>019-026>030-037>042-050>054-066-051500-
   NORTHEAST IOWA

CITY           SKY/WX    TMP DP  RH WIND       PRES   REMARKS
CEDAR RAPIDS   PTCLDY    14  12  92 W3        30.38R
CHARLES CITY * MOCLDY     5   3  92 CALM      30.37S
CLINTON *      CLOUDY    25  20  81 N6        30.38S WCI  18
DECORAH *      CLEAR      7   5  92 CALM      30.35R
DUBUQUE        CLOUDY    18  13  80 W5        30.35R HAZE    WCI  11
MONTICELLO *   CLEAR     16  12  86 CALM      30.38R
OELWEIN *      CLEAR      7   3  85 W3        30.38R
WATERLOO       CLOUDY     2  -1  88 CALM      30.40R
$$

IAZ064-065-067-068-078-051500-
   EAST CENTRAL IOWA

CITY           SKY/WX    TMP DP  RH WIND       PRES   REMARKS
DAVENPORT      CLOUDY    24  18  77 NW5       30.38S WCI  18
IOWA CITY      CLOUDY    17  13  84 NW3       30.41S
MT. PLEASANT * PTCLDY    21  19  93 CALM      30.40F FOG
MUSCATINE *    CLEAR     19  16  86 NW3       30.42R
QUAD CITIES    CLOUDY    26  17  68 N5        30.39R WCI  20
$$

IAZ062-063-075>077-085>089-095>099-051500-
   SOUTHEAST IOWA

CITY           SKY/WX    TMP DP  RH WIND       PRES   REMARKS
BURLINGTON     PTCLDY    21  18  88 NW5       30.40R WCI  15
FAIRFIELD *    CLEAR     18  14  86 CALM      30.41R
FORT MADISON * CLEAR     19  18  93 W5        30.41S WCI  13
KEOKUK *       CLEAR     21  19  93 CALM      30.41S
OSKALOOSA *      N/A     18  14  86 NW3       30.41R
CENTERVILLE *    N/A    N/A N/A N/A MISG        N/A
OTTUMWA        CLOUDY    17  15  92 NW3       30.40R
WASHINGTON *   CLEAR     18  16  93 CALM      30.41S
$$

ABBREVIATIONS USED IN REMARKS
   TC - TEMPERATURES IN CELSIUS
  WCI - WIND CHILL INDEX
   HX - HEAT INDEX
  VSB - VISIBILITY
$$





USA.gov is the U.S. government's official web portal to all federal, state and local government web resources and services.